Back to catalog

COSMOS 2205

GLONASS

AliveNavigationMEO
NORAD 22058·PAYLOAD·🇷🇺 Russia

Launched Jul 30, 1992 from Baikonur Cosmodrome

Loading…

Next Passes (next 24 hours)

TLE

AgingSource: Space-Track

Epoch: Aug 29, 2026, 04:29 UTC

1 22058U 92047C   26241.18688050 -.00000001  00000-0  00000+0 0  9991
2 22058  64.0999 299.6394 0020437 222.7579 166.6187  2.13103269265092

Track COSMOS 2205 in real time with AllMySat

Download on the App Store